Theta_e
307 307 308 310 310 312 312 312 313 313 313 315 316 316 317 318 319 319 315 317 317 317 317 318 319 318 318 317 318 319 319 319 318 318 317 316 315 312 309 310 309 305 303 301 301 303 304 302 300 299 297 297 295 294 294 292 291 290 290 289 287 286 287 285 285 283 285 285 285 285 285 285 285 284 283 284 284 284 287 284 284 284 283 284 284
303 304 305 306 308 308 309 308 308 309 310 310 310 311 312 313 314 314 313 314 314 315 314 315 314 316 316 316 316 316 317 318 315 315 314 313 312 310 309 308 306 302 302 302 301 302 300 299 297 296 296 295 293 293 292 291 290 289 287 287 285 286 284 286 284 283 284 284 283 284 284 284 283 284 283 282 282 282 282 283 284 283 283 284 284
301 301 302 303 304 304 305 305 306 307 307 305 306 306 306 306 309 310 310 310 310 311 314 314 313 313 313 313 314 313 314 314 313 313 313 311 308 305 306 307 305 302 301 300 300 299 298 295 294 293 293 292 291 291 290 289 288 287 286 286 285 284 284 284 284 283 282 283 283 283 283 283 282 283 283 283 282 283 282 281 282 284 284 283 283
301 301 301 300 301 301 301 301 303 303 304 304 305 306 307 307 307 307 309 310 311 310 310 313 313 313 312 311 311 311 311 310 309 311 312 309 307 307 305 304 302 301 301 299 298 298 298 296 293 293 292 291 289 288 287 287 286 286 285 285 285 284 283 283 283 283 283 283 282 283 283 283 282 282 283 282 282 282 281 282 281 281 282 283 282
299 299 298 298 298 298 298 298 299 299 301 303 304 305 305 305 306 310 309 309 310 309 309 308 309 309 309 309 309 308 309 308 308 307 306 306 306 304 303 303 302 301 301 299 296 298 297 296 293 292 291 290 288 287 286 285 285 285 285 285 284 284 284 283 282 282 282 283 282 282 281 281 281 281 281 282 281 280 279 280 280 280 280 281 282
300 299 299 298 298 298 299 300 299 299 300 302 302 302 302 302 302 302 303 309 306 306 307 305 306 307 307 307 307 307 306 306 307 307 305 304 303 303 302 301 299 298 297 297 296 297 296 295 292 291 290 289 287 286 285 285 285 284 284 284 284 284 283 282 282 281 281 281 281 282 281 282 280 281 281 281 281 279 279 278 279 279 279 278 279
301 302 300 298 299 300 298 299 299 300 300 300 300 300 300 299 300 301 299 301 303 303 301 303 302 304 305 305 305 305 304 302 303 302 301 301 300 299 297 297 296 296 295 294 294 294 295 293 291 291 290 289 287 285 285 285 285 284 284 284 284 283 282 282 281 281 281 280 280 281 280 281 281 280 281 280 280 279 278 277 277 278 279 278 277
300 300 299 299 299 299 299 299 300 301 300 300 301 301 301 298 298 298 297 299 299 300 301 302 301 299 301 301 301 300 300 298 298 299 299 299 298 296 296 296 295 295 294 294 294 294 293 292 291 290 290 288 286 286 286 285 285 284 284 284 283 282 282 281 281 280 280 280 280 280 279 280 282 281 280 279 278 277 276 275 276 276 276 275 276
300 300 299 299 299 300 300 300 300 299 296 297 297 297 296 295 295 295 295 295 297 297 298 299 297 297 296 296 296 296 297 298 297 297 297 296 297 297 296 295 295 294 293 292 292 292 291 290 289 289 288 286 287 287 287 287 285 284 283 283 283 282 281 281 281 280 279 279 279 280 280 279 280 279 278 277 277 276 276 276 274 276 276 276 277
300 300 299 299 299 299 298 299 298 296 296 295 294 293 293 292 292 293 293 293 293 293 294 294 293 293 293 293 293 295 296 297 293 294 295 298 297 296 294 293 293 292 292 290 289 289 289 288 288 287 286 286 287 288 288 288 288 286 285 283 283 282 281 281 280 280 279 279 280 280 279 279 279 278 277 277 277 276 275 275 273 274 274 273 274
299 299 300 299 299 299 298 295 293 293 295 294 292 291 291 290 290 291 291 291 292 291 291 292 291 291 293 293 293 294 296 297 293 296 297 296 295 294 293 293 292 291 291 290 289 288 287 287 286 286 286 286 287 288 289 289 288 288 287 286 285 283 282 281 280 280 280 280 279 280 279 279 278 278 277 277 276 276 274 273 273 272 270 270 268
299 299 300 299 298 297 294 293 291 291 291 291 290 290 289 289 290 290 290 290 290 290 291 291 291 291 291 291 292 292 293 293 295 296 296 296 294 293 292 292 292 291 290 290 288 287 286 285 284 285 285 285 285 286 287 288 288 288 288 287 287 287 286 283 281 280 280 280 280 280 280 279 278 277 277 277 276 275 275 275 273 271 269 268 269
298 299 298 298 296 296 293 291 291 290 290 290 289 289 288 289 289 289 290 289 289 290 290 291 291 290 291 291 291 291 291 293 294 295 295 294 294 292 291 291 290 290 290 288 287 285 284 284 283 283 283 283 283 283 283 284 287 287 287 287 287 288 288 287 287 283 282 282 281 280 280 279 278 278 277 277 277 274 274 273 274 273 271 271 271
297 297 295 296 294 293 292 291 291 291 290 289 289 288 288 289 289 289 289 288 289 289 290 289 290 290 290 290 290 291 292 291 294 294 294 293 294 293 291 290 290 289 288 287 285 284 284 283 282 282 282 282 282 282 282 282 282 282 282 281 281 283 286 286 286 285 283 282 280 280 280 279 279 278 278 279 275 272 273 274 276 274 272 271 272
295 296 294 294 293 293 292 291 291 291 289 289 288 289 289 289 289 288 289 288 288 288 289 289 289 289 290 290 290 291 291 291 293 293 293 294 294 292 289 289 288 287 287 285 284 284 284 283 282 282 281 281 282 282 281 281 281 280 279 278 279 279 279 280 281 281 281 281 280 281 280 280 279 278 277 278 277 276 277 277 276 274 273 272 273
294 294 293 293 293 293 292 292 291 291 289 289 288 288 288 289 288 289 288 288 289 289 289 289 288 289 289 289 289 291 290 291 292 292 293 293 293 290 288 288 287 286 285 284 283 282 282 282 281 281 281 281 283 285 283 281 280 278 278 277 277 278 279 282 284 284 282 281 281 280 279 281 281 279 279 278 277 277 275 272 270 269 268 266 268
292 292 292 293 293 293 292 292 291 290 289 288 288 288 288 288 288 288 288 288 288 288 288 288 288 288 288 288 290 290 289 289 291 292 292 293 292 288 288 286 286 285 285 284 282 282 282 281 281 281 281 280 284 286 286 283 279 278 278 278 277 277 278 281 284 285 284 284 284 284 284 283 283 283 282 282 280 278 273 270 268 265 266 265 266
290 291 292 292 292 293 292 292 291 289 288 288 288 288 288 287 287 288 288 288 288 287 288 288 287 288 288 288 289 289 289 288 289 291 292 292 290 288 287 286 286 285 284 282 281 280 281 282 281 281 281 280 286 287 287 283 279 279 278 278 277 278 279 280 280 281 283 282 282 282 282 282 282 282 282 282 282 280 272 270 266 265 265 265 265
289 290 291 292 293 292 292 291 290 289 288 288 288 288 288 287 287 287 287 287 287 287 287 287 287 287 287 287 287 288 288 287 289 290 291 292 290 288 287 286 285 284 284 282 281 281 280 282 282 282 281 282 287 288 287 283 279 280 280 279 278 278 279 279 279 278 279 277 276 277 278 279 279 278 278 281 281 280 275 271 265 266 266 265 265
288 289 290 292 292 292 290 290 289 289 288 288 288 288 287 287 287 287 287 287 287 286 286 287 287 287 287 287 287 287 287 287 286 290 291 291 291 288 287 286 285 285 283 283 280 278 280 280 283 286 285 285 287 288 288 285 281 281 281 280 279 279 280 279 279 278 278 277 276 276 275 276 276 276 275 276 277 276 274 271 271 268 266 266 266
288 289 291 292 292 291 290 290 289 288 288 288 287 287 287 287 286 287 287 287 286 286 286 286 286 286 286 286 286 287 287 287 286 289 290 291 291 289 287 286 286 285 284 282 281 280 279 279 279 286 287 286 287 288 288 287 285 282 282 281 281 281 281 278 279 279 277 275 274 273 273 273 273 273 273 273 273 272 272 274 272 271 268 267 265
288 289 290 291 290 289 289 288 288 288 287 287 287 287 287 287 286 286 287 286 286 286 285 286 286 286 286 286 286 286 286 286 286 287 289 290 290 291 287 286 286 285 284 283 282 281 279 277 277 282 287 287 288 288 288 287 286 283 282 284 284 283 280 279 279 277 275 274 273 272 272 272 272 271 272 272 272 272 272 272 273 270 269 270 269
288 288 289 289 289 288 288 288 288 288 288 287 287 287 286 286 286 286 286 286 285 285 285 285 285 285 285 285 285 286 286 286 286 286 287 289 290 290 290 288 289 286 284 283 283 282 280 277 279 282 286 287 288 288 288 288 286 283 284 285 284 283 281 277 277 275 274 273 273 272 272 272 271 271 271 271 272 273 273 273 272 272 271 270 271
288 288 287 287 288 287 287 287 287 287 287 287 287 286 286 286 286 286 286 286 285 285 285 285 285 284 285 285 285 285 285 286 285 285 286 288 289 290 290 290 289 286 285 283 283 282 279 277 278 283 285 286 287 288 288 288 285 285 285 285 284 283 277 276 275 275 273 273 272 272 272 273 272 272 272 273 272 273 273 272 271 271 270 269 269
287 286 285 286 287 287 287 287 286 286 286 287 287 286 285 285 285 285 285 285 285 285 285 285 284 284 285 285 285 284 285 285 285 285 285 286 288 289 289 289 289 288 284 282 282 282 282 284 284 284 285 286 287 287 287 287 287 286 284 284 283 280 276 275 274 274 272 272 272 272 272 273 273 273 274 273 272 271 270 270 270 270 270 270 270
285 284 284 284 285 286 286 286 286 286 286 286 286 286 285 285 285 285 285 285 285 285 284 284 284 284 284 284 285 285 285 285 285 285 285 285 285 287 288 288 286 286 284 282 283 285 286 285 285 285 285 285 285 285 284 285 286 286 284 283 281 278 275 274 273 273 272 272 272 272 272 273 273 273 272 271 270 269 269 269 269 269 270 269 269
284 283 282 282 283 285 285 285 285 286 286 286 286 286 286 286 285 284 285 285 284 284 285 284 284 284 284 284 284 285 284 283 284 284 283 281 280 282 284 285 285 285 283 281 281 280 283 283 283 284 284 284 284 284 284 284 284 284 283 282 279 277 275 274 273 273 272 272 272 273 274 273 272 271 270 269 269 269 270 270 269 269 270 270 270
283 282 281 281 281 282 283 281 283 284 285 286 285 285 285 285 285 285 284 285 285 284 284 284 284 284 283 283 282 281 280 279 278 279 278 279 279 279 279 280 281 282 281 281 281 282 282 282 283 282 282 282 283 282 282 282 282 281 280 278 276 275 275 275 275 273 273 273 273 273 272 271 270 270 270 269 269 269 271 270 270 269 270 270 268
281 280 280 280 280 280 280 280 280 282 282 282 283 283 283 283 284 284 285 286 286 284 283 281 280 277 278 278 277 276 276 276 278 283 281 283 281 279 279 280 279 279 281 283 280 280 280 279 279 279 279 279 280 280 280 279 279 278 276 275 274 274 274 274 272 272 272 272 272 272 271 270 269 270 269 269 269 269 271 269 270 268 269 270 268
280 279 280 280 280 280 280 278 279 279 279 279 278 276 280 282 282 279 277 282 283 284 283 277 277 275 276 276 278 278 277 276 283 286 286 286 286 286 284 284 284 281 283 285 280 276 276 276 276 277 277 278 278 278 278 278 277 275 274 274 273 272 272 272 272 272 272 271 271 271 270 270 269 269 269 268 269 269 270 270 268 270 268 268 268
280 279 279 279 280 279 279 279 279 279 279 278 278 278 275 277 283 283 282 281 282 283 284 285 284 283 278 275 278 284 284 285 285 286 287 287 287 287 286 286 286 285 285 281 277 276 275 275 276 276 277 277 277 277 277 276 275 275 274 273 272 272 272 271 272 271 271 270 270 271 270 270 269 269 268 269 268 269 269 270 268 268 268 268 268
280 279 279 279 279 279 278 278 278 278 277 276 278 277 277 276 276 282 283 283 283 283 283 283 283 283 283 281 278 276 282 284 285 285 285 286 286 286 286 286 286 286 285 284 277 275 275 275 275 276 276 276 277 277 276 276 275 274 274 272 272 271 271 271 272 271 270 270 270 269 270 269 269 269 269 268 268 268 268 268 268 267 268 268 268
280 279 278 278 278 278 278 278 277 277 277 277 277 277 277 276 277 275 278 282 283 283 283 283 282 282 283 283 284 283 282 283 284 284 285 285 286 286 286 286 286 286 286 281 276 275 275 275 275 275 275 275 276 276 276 275 274 273 273 273 272 271 271 271 272 270 270 269 269 269 269 269 269 269 269 268 268 267 268 267 268 268 267 267 267
279 278 278 278 278 277 277 277 277 276 276 276 276 276 275 276 275 275 274 274 275 279 282 282 282 283 283 283 283 283 283 283 283 284 284 285 285 285 285 284 286 286 284 279 277 276 276 275 275 276 276 276 276 276 276 275 275 274 274 274 273 272 272 271 270 270 269 269 269 269 269 269 268 268 268 268 268 267 267 267 267 267 267 267 266
277 276 275 276 276 276 276 275 275 275 275 275 274 274 276 274 274 273 273 273 273 273 274 275 280 283 279 281 282 283 283 283 283 283 283 283 283 284 284 280 279 280 281 281 279 278 277 276 276 276 276 276 276 276 276 277 276 275 274 274 274 273 272 270 270 270 269 269 269 269 268 268 268 268 268 267 267 266 266 267 267 267 267 267 267
276 275 275 276 276 275 275 276 274 275 274 273 274 274 274 273 273 273 273 273 272 272 273 274 275 280 282 281 282 282 282 282 282 283 283 283 283 283 276 275 274 276 277 278 279 280 279 279 278 277 277 277 276 276 277 276 277 276 275 274 273 273 272 270 269 269 269 269 268 268 268 268 268 268 268 268 267 267 267 267 267 267 268 267 267
276 275 275 275 275 275 274 274 274 275 276 273 273 272 272 272 272 270 270 270 271 271 271 270 270 271 276 275 279 280 282 282 282 282 282 282 283 281 276 275 275 275 276 277 278 278 278 279 279 279 279 278 277 277 277 277 277 276 276 275 274 273 273 271 270 269 268 268 268 268 268 268 268 268 267 266 267 267 267 267 267 267 267 267 267
275 275 274 274 274 274 273 272 272 275 272 272 272 271 271 270 270 270 270 270 271 270 270 269 274 270 270 271 278 276 275 280 281 280 281 281 279 276 276 276 276 276 276 276 277 277 277 278 278 278 278 278 278 278 277 277 276 276 275 274 274 273 273 272 270 269 268 268 268 268 268 268 268 267 267 266 266 266 266 267 267 266 267 267 267
272 274 275 276 275 273 273 272 272 271 271 271 271 271 270 269 269 269 268 268 269 269 270 269 269 270 270 270 270 273 274 270 271 271 272 273 275 275 276 276 276 276 277 277 277 277 278 278 278 277 277 277 277 277 277 277 276 274 274 273 273 272 272 271 270 269 268 268 268 268 268 268 267 267 267 266 266 266 266 266 266 266 266 266 266
272 273 274 275 274 274 272 272 272 271 270 270 269 269 269 269 268 268 268 268 268 269 269 270 270 269 269 269 270 270 270 270 270 271 271 272 273 275 276 276 276 276 276 276 277 277 277 278 278 277 277 277 277 277 277 276 275 274 272 272 271 270 270 270 270 269 268 268 268 268 267 267 267 267 266 266 266 266 266 266 266 266 266 266 266
272 272 272 274 274 273 272 271 270 270 270 269 269 269 268 269 269 269 268 268 268 269 270 268 267 267 269 274 277 276 270 268 269 270 271 271 273 273 274 274 275 275 276 276 277 277 278 278 278 278 277 276 276 276 275 275 274 273 272 271 271 271 270 269 269 269 269 268 268 268 267 267 267 266 265 265 267 266 266 266 266 266 266 266 266
272 271 271 272 272 271 271 270 269 270 269 269 269 268 268 269 268 269 269 269 270 269 268 267 266 266 272 276 276 276 271 268 269 269 269 270 271 272 273 273 273 272 273 273 274 276 277 278 278 278 278 277 276 275 275 274 274 273 273 272 271 271 270 270 269 269 269 268 268 268 267 267 266 266 266 266 265 265 265 265 265 265 265 265 265
271 271 271 271 271 270 270 270 270 269 269 268 269 270 269 268 268 269 270 270 270 269 267 266 266 266 268 275 274 275 269 267 270 269 269 270 270 271 271 272 272 272 272 273 273 273 274 275 276 277 277 278 278 277 276 276 275 274 273 272 272 271 270 270 270 269 269 268 268 268 267 267 267 266 266 265 265 265 265 265 265 265 265 265 264
271 271 271 271 271 270 270 270 269 269 269 269 269 269 269 269 269 269 269 269 269 269 268 267 266 266 265 268 270 268 266 266 265 266 267 269 269 269 269 269 269 269 269 270 271 271 272 272 273 274 274 275 276 276 276 275 275 274 273 272 271 271 271 270 270 269 269 268 268 267 267 267 266 266 265 265 265 264 264 264 264 264 264 264 264
271 270 270 270 269 269 269 268 268 269 269 269 269 270 269 270 269 269 269 268 268 267 266 266 266 265 265 264 264 265 264 264 267 267 267 267 267 267 267 267 268 268 269 269 268 268 269 270 270 270 271 272 273 273 274 274 273 273 273 273 272 271 271 270 270 270 270 269 268 267 267 267 266 266 265 265 264 264 263 264 264 264 263 263 263
269 269 269 269 268 268 268 268 268 269 269 269 269 269 269 269 268 268 267 267 267 267 266 265 264 264 264 263 264 265 263 263 263 265 266 266 266 267 266 266 267 267 267 268 268 268 269 269 269 269 269 270 270 271 272 272 272 272 272 272 272 272 272 271 270 270 269 269 268 268 267 266 266 266 265 265 264 264 264 264 264 263 263 263 263
269 269 268 268 268 268 268 268 268 268 268 268 268 268 268 267 266 266 267 267 266 266 264 263 262 262 262 262 262 262 264 264 265 265 265 265 265 265 265 265 266 266 266 266 266 267 267 267 267 267 268 268 268 268 268 270 271 271 270 270 270 271 271 270 270 269 269 269 268 268 267 266 266 265 265 264 264 263 263 263 263 263 263 263 263
267 267 267 267 267 267 267 267 267 266 267 267 266 266 266 265 265 265 264 263 263 263 262 261 261 261 262 262 263 263 264 263 263 264 264 264 263 264 264 263 264 264 264 264 263 264 264 265 265 266 267 267 267 267 267 267 268 269 270 270 269 269 269 267 268 268 268 268 267 267 267 266 266 265 265 264 264 263 262 262 262 262 262 262 262
266 267 266 267 267 267 267 266 266 266 266 265 265 265 264 264 263 262 262 262 261 261 261 260 260 261 261 262 263 263 263 263 262 262 262 262 262 262 262 262 263 263 264 264 264 264 264 265 265 266 266 266 266 266 266 265 266 266 267 268 268 267 267 266 267 267 266 267 267 267 266 266 266 265 265 264 263 263 263 262 262 262 262 262 262
265 265 265 265 265 265 265 265 265 265 264 264 263 262 262 262 261 261 261 261 260 260 259 260 261 261 261 261 262 262 262 261 261 262 262 262 262 263 264 264 264 264 265 265 265 265 265 265 265 265 265 265 265 265 265 264 264 265 265 266 266 266 266 267 267 266 266 266 266 266 266 265 265 265 264 264 263 263 262 262 262 261 261 261 261
264 264 264 264 264 264 264 264 263 263 262 261 260 259 260 259 259 259 260 259 258 259 260 259 258 259 260 259 261 261 261 261 261 261 261 261 262 262 263 263 263 263 263 263 263 264 264 264 265 265 265 265 265 265 264 263 263 264 265 266 266 266 266 265 265 265 266 265 265 265 265 264 264 264 264 263 263 262 261 261 261 261 260 260 260
Wind_Speed
3 4 4 5 5 6 7 6 6 5 5 5 6 6 6 6 5 4 4 5 4 5 5 6 6 7 8 8 8 9 9 9 8 9 9 9 9 8 8 9 9 6 7 5 4 5 6 8 8 6 6 7 5 5 5 4 3 3 3 4 5 4 5 4 5 3 1 2 3 3 3 5 1 3 3 2 2 2 2 2 1 1 3 4 4
4 4 4 4 5 5 5 4 4 3 3 4 4 4 3 2 2 1 3 2 3 3 3 3 4 5 6 7 7 8 9 10 8 8 9 9 9 8 9 10 8 6 6 7 6 7 7 8 7 6 6 7 7 6 6 5 5 5 4 6 6 6 3 5 5 6 6 0 2 3 2 2 1 1 4 3 3 1 3 3 3 2 3 4 4
4 4 3 3 3 2 2 3 2 3 3 4 4 4 4 4 2 2 3 3 3 4 5 6 5 5 5 6 7 8 8 8 8 9 9 10 9 7 7 9 11 11 10 9 9 8 8 8 7 6 5 7 7 6 6 6 5 7 6 5 6 5 4 3 4 5 6 4 3 4 3 2 4 3 4 4 3 3 3 4 4 3 2 3 3
2 3 2 2 2 2 2 2 2 3 4 4 4 4 4 4 4 4 4 4 4 4 4 5 6 8 9 8 8 8 8 7 7 8 9 8 9 12 12 11 10 10 10 9 8 9 10 10 10 10 9 8 7 7 7 6 7 7 7 5 6 6 4 4 2 4 4 6 3 6 3 5 3 3 3 2 3 3 3 4 3 3 2 2 2
1 1 1 1 1 1 2 1 1 2 3 3 4 4 4 4 4 5 4 5 5 6 6 5 6 6 7 8 8 7 8 7 7 7 6 7 10 9 8 9 11 12 12 12 12 12 11 12 11 10 10 10 8 8 8 9 7 8 8 6 6 5 4 4 3 2 3 6 4 2 3 3 3 3 3 4 1 1 2 3 3 1 3 3 2
2 2 2 2 2 2 2 2 3 3 2 3 4 4 4 3 4 3 4 5 5 5 5 5 5 6 6 7 7 7 7 7 8 9 9 8 7 8 9 9 9 8 8 9 11 10 11 10 10 10 10 11 10 9 9 10 8 8 8 7 6 6 5 4 3 3 3 4 5 4 2 4 3 4 3 6 4 2 3 3 3 3 2 3 3
4 4 3 3 4 4 3 3 3 4 4 4 3 4 4 4 3 4 3 4 4 4 4 4 4 5 6 5 5 6 6 5 5 5 5 6 7 7 7 7 8 7 7 7 6 6 7 8 10 11 12 11 11 12 11 10 9 9 9 8 7 7 6 5 5 5 5 5 4 4 4 4 4 3 2 4 4 3 2 2 3 1 1 2 4
5 4 4 4 5 4 4 4 4 5 4 5 6 5 5 4 4 3 2 3 4 4 4 5 5 4 4 5 5 4 4 4 4 4 4 5 6 6 6 7 7 7 7 8 10 10 9 9 10 11 11 10 11 11 11 11 8 8 7 7 8 8 7 6 6 6 6 5 6 6 5 5 2 2 2 2 1 1 1 1 3 5 5 2 2
5 5 5 5 5 5 4 3 4 3 3 2 3 3 3 3 2 1 1 2 2 2 1 2 2 2 0 1 2 2 4 5 5 6 7 6 6 7 8 9 10 9 7 6 6 6 6 6 7 8 9 11 13 11 11 10 11 10 8 8 9 8 7 7 7 6 6 5 6 5 5 5 5 5 4 3 4 4 1 2 1 2 4 5 6
5 5 6 5 5 4 4 3 3 2 1 2 2 1 1 0 0 0 1 0 0 0 1 1 2 3 3 2 3 4 5 5 7 9 8 7 7 7 6 5 6 7 8 7 6 6 7 7 7 11 12 13 14 14 14 12 10 10 12 11 10 9 8 8 8 7 7 8 8 7 6 6 6 6 5 3 2 2 1 1 1 3 3 3 4
6 6 6 5 5 5 4 3 2 1 0 0 0 0 0 1 0 0 0 0 1 1 1 2 3 3 4 4 4 4 4 5 9 11 12 12 8 7 8 7 6 6 8 9 9 8 6 6 6 9 10 11 12 15 14 13 11 10 11 12 11 12 11 9 8 8 9 8 6 6 7 7 6 4 4 4 2 2 1 1 2 2 2 3 2
7 7 6 4 4 4 4 3 2 1 1 1 1 1 1 1 0 0 0 0 0 0 1 2 2 2 3 3 4 4 4 5 9 10 10 11 10 7 6 8 8 7 8 8 8 8 7 7 5 6 7 8 8 9 10 11 11 13 13 13 12 10 8 10 10 8 8 7 7 8 6 7 5 4 3 4 4 2 1 1 2 2 3 2 3
6 6 5 5 5 6 5 4 3 3 2 2 2 2 2 1 1 1 0 0 1 1 1 1 1 1 2 3 4 4 3 5 9 10 10 11 10 8 5 6 7 8 8 8 8 8 7 7 7 5 5 10 9 7 8 8 9 12 12 11 10 10 10 8 5 5 6 7 7 7 7 5 6 4 4 5 4 4 2 2 2 3 3 5 5
6 5 5 6 6 6 6 6 5 5 4 4 4 3 2 2 1 1 1 1 1 1 1 1 1 2 2 3 3 2 3 3 8 9 9 11 11 9 6 7 6 7 7 8 7 8 9 9 9 8 6 8 8 9 8 8 8 8 7 6 5 6 7 7 5 5 3 5 6 6 3 4 5 3 4 5 5 4 4 4 3 4 4 6 4
6 6 6 6 6 7 7 6 6 6 5 5 5 5 4 3 2 2 3 3 2 2 2 2 1 1 2 1 1 2 2 3 7 8 8 9 9 7 3 3 3 4 5 6 7 8 8 8 8 9 9 9 9 10 10 9 8 7 6 5 5 4 4 4 4 3 3 2 3 4 3 3 5 5 5 5 6 3 3 4 3 4 4 4 6
7 6 7 7 7 7 7 6 6 6 6 5 5 5 4 5 4 3 3 2 2 2 1 2 2 2 1 2 2 4 2 5 7 7 8 7 7 4 3 4 5 5 5 6 6 6 7 8 8 9 9 9 10 14 10 8 8 9 8 5 4 4 4 3 4 4 4 3 3 3 3 4 6 6 5 5 3 3 2 2 1 1 3 4 6
8 8 7 6 6 6 6 6 5 5 6 5 4 4 4 4 3 3 3 3 2 2 2 1 1 2 2 2 3 4 2 4 7 8 8 9 7 3 4 3 4 6 6 5 5 6 6 7 7 7 8 8 11 16 15 11 8 9 8 7 5 4 4 4 9 9 8 7 5 7 8 8 7 7 7 8 6 4 3 1 5 3 2 2 4
7 7 6 6 6 7 7 6 6 5 5 5 4 3 3 3 3 3 4 4 3 2 2 2 1 2 2 2 1 2 1 1 5 6 8 9 8 5 3 3 4 4 4 3 3 4 5 10 8 7 8 7 13 16 17 12 9 9 8 8 7 7 6 5 4 5 8 6 5 4 4 4 5 7 8 9 9 8 7 7 4 5 3 3 5
8 8 7 6 6 7 7 7 6 6 5 5 5 5 4 4 3 3 2 3 2 2 2 2 1 1 2 2 2 2 2 2 6 7 8 9 8 5 4 4 5 4 3 4 4 6 5 8 11 9 7 7 15 16 17 12 9 9 10 9 9 9 8 7 7 7 6 4 2 3 2 4 3 3 4 9 10 8 6 5 3 3 5 4 3
6 6 7 7 7 6 5 6 6 7 6 5 4 4 3 4 3 3 3 3 3 2 2 2 1 0 0 0 1 1 2 1 3 8 9 10 11 6 3 4 6 5 4 5 6 4 6 6 8 10 11 12 15 16 16 15 9 8 8 9 9 10 7 7 7 7 6 6 4 4 4 2 3 2 2 3 4 4 3 3 4 5 5 5 4
7 7 7 7 7 7 5 6 7 5 6 6 5 4 4 4 4 4 3 3 3 2 2 1 1 0 0 0 0 1 1 2 2 6 8 9 10 9 4 5 4 4 5 6 6 6 6 5 4 6 11 13 16 17 16 16 11 8 9 9 7 4 9 7 8 9 6 6 5 4 4 3 3 3 4 4 4 4 4 4 4 4 5 5 4
8 8 8 8 7 6 6 5 6 6 5 6 6 5 4 5 5 5 4 4 3 3 2 1 0 0 1 0 0 2 2 2 2 5 8 9 9 10 5 4 3 2 3 4 4 4 4 3 4 5 9 12 15 16 17 16 15 8 9 8 8 12 9 6 6 7 6 6 5 5 4 5 5 5 5 5 5 6 5 5 4 4 3 5 6
9 9 8 7 7 7 7 7 6 6 6 7 7 7 6 6 5 5 5 5 4 3 3 2 1 0 1 0 0 1 2 1 3 3 5 7 8 9 10 6 3 1 3 4 4 3 1 2 2 5 8 10 13 16 16 17 13 8 11 11 11 11 8 5 6 6 6 5 5 6 6 6 6 7 6 6 5 5 5 4 4 3 3 2 2
9 9 9 8 8 7 7 6 5 5 6 6 6 7 6 5 5 5 5 5 4 4 3 3 2 1 1 1 1 2 2 2 2 4 3 5 8 9 10 11 7 3 2 3 2 2 1 2 3 8 9 10 13 14 15 15 9 11 12 12 12 10 6 6 6 6 6 6 6 7 7 6 6 6 6 5 5 5 4 3 3 2 2 1 2
9 9 8 8 7 6 6 5 5 4 4 5 5 5 5 5 4 3 4 3 3 3 3 3 3 1 1 2 2 2 3 3 3 4 6 6 9 10 11 12 12 6 2 1 1 3 6 8 8 11 12 11 13 13 12 13 13 11 14 14 11 6 7 7 7 6 7 8 8 6 6 6 6 5 3 5 4 4 3 1 2 3 3 3 5
9 8 8 7 7 7 7 6 5 5 4 4 4 5 5 4 4 4 3 3 3 3 3 3 3 2 3 3 3 3 3 4 3 3 5 7 7 10 11 11 11 8 5 3 6 9 10 11 12 13 12 10 8 8 8 9 13 14 15 13 8 6 6 6 6 8 8 7 6 7 6 4 4 4 5 5 6 5 4 3 3 4 4 4 3
9 8 8 7 7 7 7 6 5 5 4 4 4 4 4 4 4 4 4 4 3 3 3 3 3 4 4 4 3 3 3 4 4 4 5 5 4 4 6 7 8 8 6 5 5 6 9 9 9 11 10 14 13 10 8 8 9 10 9 8 6 5 6 6 7 7 7 6 6 4 4 4 4 5 5 6 6 5 5 4 5 4 4 3 3
9 9 8 7 7 7 7 8 7 5 5 5 5 5 4 5 5 5 6 5 5 4 4 4 4 4 4 3 3 3 3 3 4 5 4 5 6 5 5 5 6 6 6 5 5 6 6 7 9 8 7 7 8 7 8 8 8 8 7 6 5 5 6 6 5 5 5 4 3 3 4 6 7 6 5 5 5 5 6 6 5 4 3 3 2
9 8 8 7 7 7 7 7 7 7 6 5 5 6 7 6 6 5 4 5 6 6 5 5 4 4 6 4 4 4 3 4 5 6 7 8 7 6 5 6 5 5 7 8 5 4 5 5 5 6 7 8 8 9 9 8 7 5 5 5 5 6 6 7 9 8 7 6 7 7 6 6 7 5 6 5 6 6 5 6 4 6 3 3 5
9 8 7 7 7 7 7 7 7 7 7 7 6 3 2 6 6 6 4 4 7 6 6 3 6 4 3 3 3 4 4 3 5 7 9 10 11 11 8 8 8 6 8 14 8 5 6 6 7 8 8 8 9 9 9 7 6 5 4 5 5 6 7 8 7 7 6 7 7 6 7 7 7 6 7 7 5 5 6 7 6 5 5 5 5
8 7 7 7 7 7 7 7 7 7 7 6 6 6 3 0 2 5 6 5 4 5 5 5 5 4 4 2 3 3 2 1 2 3 6 7 8 9 9 10 11 11 12 8 4 7 7 7 7 7 7 7 7 7 6 6 7 7 7 6 6 7 7 8 8 5 5 5 6 5 5 6 7 6 7 7 7 5 5 5 5 5 6 6 5
9 8 7 7 7 7 6 6 7 7 7 6 7 6 6 5 2 4 5 5 5 4 3 4 3 4 4 4 4 1 3 4 3 4 4 6 7 7 8 9 11 12 14 12 6 6 6 7 7 7 6 7 8 5 6 7 7 7 6 7 7 6 7 8 5 5 6 6 7 6 6 6 6 5 5 5 5 5 5 6 6 6 6 5 6
9 8 8 8 7 7 7 7 6 6 6 6 6 6 6 6 7 4 0 1 3 5 6 5 5 4 4 4 5 5 5 5 4 5 5 7 7 7 8 10 11 13 13 9 6 7 6 7 7 6 7 8 6 7 6 6 6 7 7 8 8 8 8 7 5 6 7 8 7 8 7 6 5 5 4 4 4 5 5 4 5 5 6 6 6
8 8 8 8 8 7 7 6 6 5 4 4 4 4 4 5 6 6 6 2 1 1 2 4 5 4 4 4 5 5 6 6 7 7 7 7 8 9 9 7 11 14 12 8 7 8 6 7 6 7 7 7 6 6 7 7 7 8 9 10 10 8 9 8 9 10 9 9 9 9 8 7 7 7 7 6 7 6 7 8 7 7 7 7 7
7 8 10 7 6 6 6 6 6 5 5 5 5 5 5 4 4 4 5 4 2 1 1 1 2 4 2 1 2 4 5 6 7 7 8 8 8 9 9 4 5 6 7 6 6 7 6 7 7 7 6 7 6 6 7 7 8 8 9 9 9 8 7 8 10 9 9 8 9 9 9 9 9 9 9 9 8 8 8 8 8 8 8 7 7
8 7 6 8 7 7 7 6 6 6 5 6 5 5 5 5 5 3 3 2 2 1 1 0 1 3 3 3 3 4 5 5 6 7 7 8 8 7 4 4 3 5 5 6 6 7 6 7 7 7 6 6 6 6 7 8 8 8 8 8 9 8 8 9 8 9 9 9 9 9 8 9 9 9 8 8 10 10 8 9 8 8 8 8 7
8 7 7 7 7 7 7 6 6 6 5 5 5 5 5 4 4 3 4 2 1 1 1 1 3 5 3 2 1 3 4 5 6 6 7 6 8 5 4 5 6 5 6 6 6 6 7 7 7 7 7 7 7 7 7 8 8 8 7 8 9 9 9 9 9 8 9 9 10 10 11 10 10 10 10 10 9 9 9 8 8 9 9 9 8
8 8 7 7 7 7 7 6 6 6 6 5 6 6 4 5 4 3 3 2 2 1 1 2 3 2 1 4 2 1 1 3 2 3 4 4 3 2 3 4 5 6 6 5 5 5 7 6 6 6 6 6 7 7 8 8 7 8 8 8 8 9 8 9 8 9 10 10 10 11 11 11 10 10 10 10 11 10 10 10 9 9 9 9 9
7 8 10 10 8 7 7 7 6 6 6 6 6 6 6 5 4 3 3 3 1 1 1 1 1 1 2 2 4 3 3 2 1 1 2 2 3 4 4 5 5 5 6 6 6 6 6 7 6 6 6 6 7 7 8 8 7 7 7 7 8 7 8 8 8 9 9 10 10 10 10 10 9 9 10 10 11 11 11 11 10 10 10 10 10
8 7 8 10 7 8 7 6 7 7 6 6 6 6 4 4 4 3 2 2 1 0 0 0 1 2 2 2 2 3 2 2 2 2 2 3 3 3 4 5 5 6 6 6 6 6 6 6 6 6 7 7 7 7 7 7 7 7 7 7 8 8 9 8 9 9 10 10 10 10 10 10 9 9 9 10 11 10 11 12 11 11 10 9 8
7 7 7 7 8 7 7 7 6 6 6 6 5 5 5 5 4 4 2 2 1 0 1 1 2 3 2 2 4 5 2 3 3 3 5 3 4 3 4 4 4 5 5 5 6 5 6 6 6 6 6 6 6 7 7 7 7 6 7 7 8 8 8 8 8 9 9 9 9 9 9 9 9 9 11 12 9 9 9 8 8 8 8 8 8
8 7 7 6 7 7 7 6 6 6 6 5 6 5 5 4 2 2 2 2 1 0 1 1 2 3 3 5 4 5 3 3 2 5 4 5 4 5 5 5 5 4 5 5 5 5 5 6 6 6 7 6 6 6 6 6 6 7 7 7 8 8 8 8 8 8 9 8 9 9 9 9 10 10 11 8 9 9 9 9 9 8 8 8 8
8 7 7 6 7 7 7 7 6 6 6 5 5 5 5 3 2 2 1 1 1 1 1 1 2 2 2 3 4 5 3 3 4 4 4 5 5 5 5 5 5 5 5 5 5 5 5 6 6 7 7 7 7 6 7 7 6 7 7 8 8 9 9 8 7 7 7 7 8 9 10 10 10 9 10 10 10 9 10 10 9 9 9 9 8
7 7 7 7 7 7 6 6 6 6 5 5 5 5 4 3 2 1 2 0 0 1 1 1 1 1 2 4 3 3 3 3 4 4 4 4 4 4 4 5 5 5 6 6 6 6 6 7 7 7 7 7 7 7 6 6 5 6 7 7 8 9 9 8 7 7 7 8 9 9 9 10 10 9 9 9 9 10 10 10 10 10 9 9 9
7 7 7 7 7 7 6 6 6 5 5 4 4 4 3 3 1 1 1 1 1 0 0 1 1 1 3 2 3 2 3 3 4 4 5 5 4 5 5 5 5 6 6 6 6 6 6 7 7 7 8 7 6 6 6 6 5 6 6 7 7 8 8 7 7 6 7 8 8 8 8 8 9 10 10 9 10 10 10 11 11 9 10 9 9
6 7 6 7 7 6 6 5 4 5 4 4 4 4 3 4 2 2 1 0 0 0 1 1 1 2 3 3 3 4 3 3 3 4 5 5 5 6 5 6 6 6 6 6 6 6 6 7 7 7 8 8 7 7 7 8 7 6 6 6 8 8 6 5 4 5 6 7 7 8 8 9 10 9 11 10 10 11 11 10 9 10 10 10 10
6 6 6 6 6 6 5 4 5 4 4 4 4 4 3 2 2 2 0 0 1 1 1 3 3 4 3 3 3 4 5 4 5 5 5 5 4 5 5 5 5 5 6 6 5 6 6 6 6 6 7 7 7 7 7 6 7 7 5 6 6 7 6 5 5 6 6 7 7 7 8 8 9 9 10 11 10 10 11 11 11 12 10 10 9
6 5 6 5 6 6 5 5 5 4 3 3 4 3 3 2 1 1 1 0 0 1 1 1 2 2 3 3 4 4 4 4 4 5 5 6 5 5 5 5 5 5 5 5 5 6 6 6 6 6 7 7 7 7 7 6 6 7 7 6 5 6 7 7 6 6 5 5 6 8 9 9 9 9 9 11 11 10 11 10 9 9 9 9 8
5 5 6 5 5 5 4 5 3 4 4 4 4 3 2 2 1 0 0 0 1 1 1 2 3 3 3 3 4 4 5 5 5 5 5 5 5 4 5 4 5 6 6 6 6 5 6 6 6 7 8 8 8 8 8 7 7 7 7 7 8 11 11 12 9 7 8 7 7 7 8 9 10 10 10 10 11 10 10 9 10 10 9 8 8
5 5 5 5 5 4 3 3 4 4 3 4 4 2 1 2 1 2 1 1 1 1 1 2 2 3 3 3 4 4 3 4 5 5 4 4 4 5 5 5 5 5 5 6 6 7 7 7 8 8 8 8 8 8 7 7 7 8 7 8 12 13 12 13 13 12 9 6 7 7 8 9 10 10 9 9 10 10 10 10 9 9 9 10 10
4 5 5 5 5 4 4 4 3 4 4 3 2 2 2 1 2 1 1 1 1 2 1 2 2 2 2 3 4 3 4 4 4 3 5 5 5 5 6 6 6 6 6 7 7 7 7 8 8 8 8 8 8 8 7 7 6 7 11 16 16 14 13 12 10 10 13 11 7 7 8 9 9 9 8 8 8 9 10 9 9 9 9 9 9
Wind_Direction
191 207 200 208 200 207 211 213 221 218 224 222 220 222 221 220 223 208 188 204 189 192 192 194 194 199 200 203 204 206 207 207 201 197 197 196 190 180 171 173 171 166 151 146 146 145 150 149 155 151 144 142 146 135 137 137 117 125 139 128 132 127 135 145 167 203 326 35 111 141 136 119 124 167 184 221 271 289 275 236 229 271 279 278 279
210 223 228 222 217 219 225 231 233 247 256 270 263 265 264 258 242 230 195 222 185 188 195 196 199 207 214 212 212 211 209 205 196 192 193 190 187 177 171 164 156 156 155 157 160 156 149 147 151 151 158 153 154 159 162 153 158 154 170 158 159 149 135 144 174 158 197 282 70 89 90 105 140 207 178 209 257 293 307 297 302 266 264 268 270
204 219 233 250 262 267 255 253 260 268 282 290 289 281 281 280 277 224 223 202 198 198 191 189 199 215 228 225 220 217 211 205 196 194 192 182 173 173 173 169 165 167 173 173 169 156 148 147 152 151 148 151 163 163 156 168 164 168 174 165 157 156 139 129 140 184 180 215 179 156 169 160 168 234 203 194 205 209 247 277 266 272 242 229 246
162 179 208 239 261 272 269 260 237 247 251 262 267 272 270 258 242 233 228 218 207 214 209 205 203 208 216 219 218 215 212 206 198 200 194 185 181 180 177 170 166 170 169 166 165 166 168 163 168 166 167 164 165 162 165 166 173 173 169 166 150 152 153 123 123 154 175 165 213 172 196 166 234 220 201 177 191 258 243 263 273 266 272 273 240
156 173 170 212 248 247 267 289 264 260 252 266 270 276 269 258 242 230 229 233 224 215 216 205 209 210 213 213 213 213 210 199 194 196 191 181 180 176 174 170 172 176 179 177 175 173 173 178 174 169 166 162 164 165 169 176 180 170 168 160 150 146 131 137 139 123 150 186 199 215 168 181 203 213 187 173 270 277 291 267 254 280 311 283 261
189 195 200 212 240 251 272 298 297 294 282 278 271 278 281 271 264 260 234 229 221 215 212 215 206 209 210 213 210 211 206 199 196 193 186 182 184 181 179 177 176 172 171 175 177 177 174 168 164 167 169 169 173 171 172 176 172 168 161 155 146 138 138 134 141 150 169 200 182 218 207 182 229 221 206 159 168 241 295 307 359 348 328 335 324
197 197 200 199 211 222 219 223 234 244 244 252 274 278 270 256 245 251 239 227 222 222 222 218 218 211 215 210 209 205 200 199 202 197 185 177 172 170 173 170 166 165 163 158 161 170 172 165 168 174 178 178 171 176 175 172 173 170 166 156 150 143 149 159 158 172 187 202 228 206 218 240 178 220 238 175 177 183 194 349 315 249 329 289 298
187 195 201 205 209 212 207 206 212 216 220 219 221 225 235 241 242 244 229 233 227 220 219 216 227 218 224 209 204 189 183 186 190 185 182 172 167 172 174 167 159 158 162 167 170 177 177 178 179 180 179 177 175 177 172 170 164 163 164 150 150 150 159 163 171 179 189 201 207 216 207 211 227 206 160 122 90 347 94 127 284 311 316 299 249
187 193 203 211 207 198 200 201 201 203 210 222 229 236 237 240 252 257 245 263 268 268 261 232 208 214 179 168 153 152 174 190 184 174 162 169 176 175 175 176 168 159 161 163 169 171 172 175 179 179 176 175 176 174 178 171 162 160 167 158 157 158 159 169 177 178 192 195 219 212 201 199 206 185 180 172 182 200 218 82 275 283 293 314 304
192 201 209 209 197 189 191 175 172 180 188 218 240 261 301 356 27 1 318 293 289 141 152 145 171 183 172 160 164 172 188 190 186 178 181 175 172 167 161 168 162 158 159 159 164 174 176 173 176 174 173 170 169 171 173 177 178 169 164 164 162 162 169 171 180 188 185 196 204 190 193 212 210 191 188 206 158 106 65 41 309 290 318 286 278
194 201 210 193 186 180 160 150 131 160 250 20 41 46 36 45 52 64 47 54 179 188 149 165 191 188 187 185 189 200 201 198 185 182 181 174 166 165 168 169 162 161 167 166 174 176 176 168 158 165 166 165 166 167 169 169 165 162 164 166 168 167 167 176 191 183 189 200 192 188 199 203 208 181 174 174 120 134 153 174 241 300 326 341 312
192 200 195 180 173 158 149 139 141 140 101 84 76 74 85 80 64 82 130 202 335 80 189 217 207 202 195 197 200 210 214 197 181 188 185 178 172 169 166 166 168 172 173 177 176 171 165 157 157 158 163 161 154 154 155 156 157 159 161 163 170 178 183 176 175 184 193 188 192 202 184 202 197 168 172 138 143 100 161 164 225 233 267 250 254
189 191 185 172 167 154 150 150 151 150 146 135 131 110 112 124 128 126 115 72 115 153 252 169 216 226 199 207 223 226 230 195 186 187 182 174 167 157 163 170 175 183 179 178 174 170 161 159 160 163 158 153 148 152 150 148 145 146 147 148 153 164 174 183 188 190 174 181 188 196 193 179 176 201 169 149 128 154 186 216 227 243 235 254 251
184 187 176 178 170 166 160 156 164 164 149 140 133 131 132 141 147 143 128 113 138 162 179 202 188 199 210 225 246 269 245 221 199 190 182 178 177 173 180 183 184 180 181 177 174 171 170 170 167 171 168 163 161 159 157 154 151 144 145 150 155 161 167 175 159 138 150 179 177 192 192 158 184 157 149 139 141 171 179 212 221 238 245 246 256
186 185 183 181 172 171 167 166 165 158 152 146 142 145 145 137 142 149 150 160 162 179 190 198 208 196 210 201 198 223 247 194 205 200 197 192 186 171 156 156 168 179 182 180 177 174 175 176 177 176 173 173 175 167 161 161 155 152 151 160 164 168 170 180 177 157 153 140 158 172 185 154 149 138 139 138 147 166 168 206 214 228 254 281 290
184 184 190 188 181 176 169 168 163 154 152 151 151 156 157 161 161 158 148 153 149 144 159 169 191 196 181 162 175 216 209 177 193 194 189 189 178 164 167 177 182 183 186 183 176 174 175 178 179 179 179 180 178 170 161 152 152 155 161 160 162 170 193 187 173 156 164 172 173 179 169 141 135 134 132 125 117 115 94 38 10 325 300 298 280
190 189 191 183 179 171 167 162 162 157 156 154 164 169 169 162 158 150 147 152 153 159 169 146 154 173 186 188 202 229 218 192 191 190 189 186 173 185 183 189 190 191 198 186 177 173 178 181 184 183 180 184 178 171 164 153 155 161 163 166 168 168 188 182 194 188 167 158 159 169 153 153 161 167 173 177 169 153 120 167 254 206 187 275 296
189 185 186 178 171 163 160 160 161 160 158 169 174 171 156 159 169 163 163 161 170 170 144 133 115 137 162 204 221 255 270 176 210 207 198 192 184 187 189 194 210 203 187 157 161 175 184 186 185 185 186 183 179 174 168 158 163 167 165 167 174 184 184 159 155 152 149 134 136 145 154 172 192 205 206 207 209 176 148 195 219 137 193 204 241
181 181 179 169 165 161 161 162 161 160 165 175 171 168 175 170 151 150 148 143 155 144 141 148 135 134 155 177 193 222 255 165 188 205 202 202 194 195 188 193 203 208 172 173 174 180 191 191 190 187 188 179 183 180 173 165 171 174 174 173 189 198 192 167 174 172 163 151 177 164 198 206 217 200 208 214 214 201 176 193 188 144 207 229 242
165 157 164 166 162 157 157 160 161 163 170 164 166 168 148 138 151 150 144 137 135 123 129 136 163 184 120 153 264 263 285 264 199 210 210 209 203 197 194 188 209 199 185 184 187 206 201 198 200 188 180 180 186 184 180 173 176 175 172 189 193 207 169 173 180 180 178 169 181 177 176 191 186 173 189 221 209 185 185 183 188 179 193 215 217
152 156 154 153 156 159 160 161 159 164 163 163 155 143 152 150 143 144 142 127 120 117 122 122 123 125 78 89 169 292 257 264 245 222 226 222 215 205 215 215 212 194 195 196 199 202 208 209 206 198 183 180 184 187 185 184 180 181 191 202 199 145 147 173 178 168 167 161 170 167 174 178 197 195 205 208 207 200 193 199 185 184 177 199 215
147 149 149 152 153 152 149 149 152 154 152 143 145 146 146 144 148 146 145 142 141 132 119 118 107 18 28 64 357 316 298 251 259 239 235 232 228 221 229 252 258 222 214 219 216 222 211 191 204 218 196 179 185 188 189 189 188 185 202 190 163 163 167 168 163 161 164 165 167 182 186 202 210 211 211 210 207 206 200 197 183 176 182 179 187
146 145 146 147 150 149 147 149 151 151 155 156 150 149 147 142 143 144 145 138 136 131 121 112 103 42 33 70 155 244 261 253 219 238 243 240 238 235 235 245 298 285 249 246 239 248 160 185 181 201 212 195 194 195 196 196 189 197 191 185 180 172 152 163 167 159 166 173 181 201 204 202 206 208 205 208 207 199 194 185 177 175 196 191 197
142 142 147 147 146 146 146 146 145 150 153 149 145 141 143 138 136 147 144 142 142 139 135 132 131 147 227 247 220 213 217 205 203 210 212 228 236 239 241 241 247 281 246 245 251 217 169 157 171 194 210 212 208 206 207 202 201 192 188 187 181 176 149 169 175 173 167 181 201 211 210 204 200 206 207 194 191 188 182 164 147 127 154 225 272
140 141 142 142 141 139 129 130 133 135 139 139 134 132 129 133 129 132 131 130 131 132 126 130 141 149 178 222 226 209 195 193 187 178 193 200 215 218 224 223 225 226 207 203 145 158 157 164 171 190 199 210 214 218 219 217 211 191 190 192 186 178 171 178 180 173 190 204 210 210 212 207 201 197 166 152 135 114 120 141 167 204 207 220 225
136 134 131 129 132 129 125 122 122 124 127 125 127 134 138 139 128 127 126 125 127 133 132 136 150 171 211 222 230 221 197 184 187 172 181 202 209 215 214 217 217 209 163 160 149 149 151 161 172 182 193 201 206 209 212 213 215 202 195 197 198 188 174 176 182 193 209 208 208 214 210 178 178 157 134 132 147 175 160 185 196 224 195 205 229
126 126 126 124 122 124 126 126 123 118 117 110 109 117 125 132 127 131 149 150 153 157 166 170 180 196 220 229 227 223 205 191 190 197 192 192 200 198 206 214 211 202 190 157 139 149 159 162 174 181 188 199 204 210 217 221 221 214 209 198 191 173 175 186 195 205 210 211 214 209 181 165 128 138 168 168 180 186 178 189 196 199 183 209 219
132 130 127 127 129 132 130 129 130 131 135 138 137 139 149 153 152 162 169 173 170 183 185 192 197 202 217 220 224 237 235 213 208 207 210 192 200 195 196 197 200 202 193 175 159 155 157 168 178 185 190 197 205 207 213 210 214 208 198 182 161 156 175 188 203 218 224 214 209 172 166 146 176 184 181 187 195 194 191 191 190 188 186 168 202
118 121 125 125 133 134 134 141 143 144 150 146 156 164 164 168 167 170 182 178 180 179 185 193 193 198 190 195 198 222 231 230 236 207 201 194 191 194 200 205 201 199 191 163 135 144 153 170 180 183 192 202 206 211 212 211 215 186 174 167 156 168 185 195 207 213 208 201 209 202 195 172 187 188 193 197 203 190 194 182 195 160 208 192 210
120 123 127 132 136 134 137 140 141 147 152 151 130 85 102 151 166 157 174 145 130 132 138 159 164 148 150 218 183 190 211 221 227 204 204 200 203 198 201 196 192 186 182 174 162 167 189 192 200 196 202 205 213 214 214 211 203 194 196 179 179 188 200 209 216 216 207 212 216 208 205 182 194 200 201 205 204 187 194 182 189 176 170 201 211
122 126 130 140 144 141 141 138 141 145 153 151 149 146 142 53 143 144 143 140 129 119 121 137 159 175 151 232 313 3 326 266 198 206 216 215 210 211 192 187 184 182 179 159 181 197 204 211 215 211 216 217 225 222 210 203 207 203 205 196 205 204 206 213 219 213 219 222 231 229 222 211 216 209 209 209 198 192 185 188 156 197 191 194 208
137 143 138 142 138 136 142 144 143 142 147 149 151 150 147 154 217 244 199 193 185 179 165 167 164 177 195 190 195 271 275 277 235 212 210 214 208 191 190 188 187 188 188 177 194 221 214 223 223 222 216 223 227 215 211 211 210 207 208 208 219 211 215 226 209 205 217 217 222 223 220 222 224 225 225 224 201 195 190 193 187 185 199 200 213
135 136 136 139 137 136 140 146 150 147 150 149 152 150 153 153 154 166 323 282 203 200 203 205 212 215 226 235 231 235 244 252 245 237 225 218 207 200 201 204 200 201 195 198 209 221 221 226 230 226 220 230 222 217 220 207 206 208 206 215 221 214 214 214 191 207 213 217 217 223 217 218 213 212 221 223 211 204 208 208 207 196 194 201 217
127 134 142 142 136 137 140 143 139 139 135 135 137 140 136 134 131 130 140 117 41 324 255 232 230 231 232 235 247 258 266 267 266 255 241 222 217 214 215 216 222 214 204 208 212 230 224 235 235 234 234 233 224 213 219 212 206 208 210 216 218 211 208 195 199 211 207 209 211 217 211 210 202 197 202 193 205 200 207 208 202 199 203 204 207
106 113 119 122 123 123 122 117 117 115 119 122 127 124 124 116 118 128 133 136 128 105 347 337 279 210 206 259 276 283 282 279 276 273 266 247 243 237 238 230 230 247 240 232 224 234 234 235 240 240 239 240 237 223 229 222 219 217 218 220 220 216 208 200 210 210 209 208 211 214 209 206 204 203 201 202 201 205 209 207 207 204 200 205 203
104 101 99 104 102 100 102 104 107 115 119 120 120 118 117 116 120 119 109 113 117 100 1 348 29 305 228 243 263 282 289 292 286 284 278 270 259 252 235 238 236 238 239 248 246 244 241 241 242 245 238 243 237 236 235 236 231 228 223 220 221 218 214 212 210 210 211 207 212 211 208 213 209 205 206 210 210 210 207 208 208 206 202 204 205
114 109 104 106 110 111 108 105 108 114 116 115 112 107 100 96 85 79 84 94 77 60 125 339 6 347 354 317 268 303 304 288 289 291 289 282 268 253 209 213 222 237 237 244 248 255 252 250 242 245 241 241 241 237 238 238 234 230 224 216 220 219 222 216 211 207 204 208 210 209 211 215 211 206 201 208 211 208 208 208 209 209 207 200 192
124 127 129 129 124 122 116 117 117 111 102 99 98 103 102 97 99 103 100 81 97 109 20 335 9 6 27 316 12 149 276 319 315 319 308 293 284 255 233 223 224 230 243 245 246 247 256 256 248 244 242 234 240 240 239 242 234 229 226 223 221 228 215 211 202 204 206 209 210 211 213 216 210 206 204 209 210 207 205 204 203 205 208 196 196
113 123 126 127 122 121 123 119 116 111 108 103 104 102 104 104 97 96 88 99 83 65 27 18 356 333 300 306 351 337 64 354 8 276 263 250 236 231 230 235 237 241 246 248 250 254 259 262 255 250 244 236 239 240 240 242 235 226 223 222 225 227 216 217 210 208 206 213 215 215 215 216 211 207 206 210 214 211 207 205 203 202 199 200 202
123 121 114 111 106 111 114 119 121 118 121 119 118 114 106 110 114 112 107 101 68 69 45 41 323 305 297 12 334 355 12 320 322 316 317 293 264 250 234 235 242 244 248 254 252 253 258 261 256 254 252 244 240 242 240 239 235 228 219 219 219 223 220 215 216 210 214 214 217 217 216 216 212 208 210 215 217 213 209 207 207 202 202 201 200
120 115 112 112 118 115 111 111 110 117 116 111 115 110 113 105 98 99 98 99 102 58 331 286 264 278 297 320 320 325 309 285 287 300 298 296 297 294 285 270 263 264 263 261 262 260 260 267 266 262 258 253 247 246 245 238 234 228 224 223 224 230 226 220 218 220 219 216 218 218 218 215 210 206 214 219 213 213 219 213 208 206 201 200 194
120 119 117 120 119 116 114 103 104 96 94 94 91 96 96 106 113 112 106 110 104 140 225 291 288 278 305 324 328 314 306 285 286 287 288 293 292 289 292 296 297 299 299 299 299 300 296 291 288 283 278 271 262 253 251 245 235 229 229 227 228 231 231 229 221 220 219 220 221 220 218 214 213 213 218 212 209 210 210 208 205 199 197 193 193
119 120 120 116 110 110 112 115 112 108 103 100 100 98 95 94 86 88 101 125 163 192 210 275 282 311 321 319 329 321 321 298 283 276 278 277 278 280 282 282 283 285 290 297 305 308 308 305 302 299 297 293 287 274 256 251 238 236 235 232 232 233 234 233 227 222 218 221 224 221 219 218 216 215 215 212 209 208 209 205 201 199 196 190 188
114 110 104 102 103 97 96 103 107 104 106 105 105 103 107 98 102 106 121 118 184 255 222 249 273 319 309 314 320 315 297 295 293 289 287 290 293 296 298 300 306 313 314 316 317 320 317 310 306 303 301 298 299 297 283 267 251 242 239 239 239 239 239 236 227 221 213 220 224 222 221 220 218 215 215 211 205 205 208 204 203 200 193 192 187
109 111 112 108 103 103 100 95 99 106 113 114 116 125 122 120 110 103 110 144 297 324 290 268 298 297 298 302 306 297 290 289 297 303 304 303 304 304 307 311 312 315 316 317 318 323 318 313 310 307 305 304 302 302 299 290 270 257 253 247 249 246 243 237 233 223 219 224 229 228 224 220 218 216 214 208 205 206 209 207 203 196 195 194 188
104 109 111 112 112 108 106 106 106 107 110 112 117 107 115 117 125 140 161 149 170 192 270 321 310 308 292 292 292 301 300 309 303 299 301 304 302 300 300 304 305 304 304 301 306 305 302 300 300 298 299 302 303 300 295 296 285 266 257 250 252 255 252 234 218 218 219 224 228 229 227 224 223 219 213 206 206 206 209 206 201 201 198 193 194
98 103 103 105 105 108 106 109 107 111 109 109 111 116 101 100 101 81 80 179 207 244 267 274 272 273 277 282 289 291 292 295 291 292 288 286 291 293 298 300 303 302 300 298 298 298 300 300 300 300 301 302 303 301 298 298 299 291 269 256 257 257 258 236 219 214 221 223 227 231 231 232 226 225 215 209 209 207 203 202 198 195 196 192 190
96 95 97 101 105 109 112 112 113 117 118 120 113 112 113 111 115 164 169 64 78 327 276 301 303 293 303 298 297 296 301 301 303 299 300 300 297 300 303 309 309 310 314 316 315 313 310 307 305 305 305 306 306 305 302 301 299 298 294 287 270 259 254 247 241 236 231 225 224 230 235 236 235 225 216 209 209 202 200 203 193 194 191 188 184
95 98 100 97 103 104 109 110 113 115 119 115 115 126 134 118 120 123 149 216 219 240 248 275 285 292 293 292 297 307 306 309 304 302 298 298 302 309 316 319 319 319 317 313 311 312 309 309 312 311 311 307 307 304 305 304 302 301 298 294 291 282 264 248 245 241 233 231 234 232 236 240 237 231 219 212 207 201 201 196 192 189 186 185 181
85 89 94 94 97 96 94 98 106 107 104 115 127 129 128 149 185 221 221 228 241 261 275 281 279 280 282 292 308 311 314 309 303 300 306 308 315 314 318 317 318 316 321 320 324 322 321 316 313 308 304 303 301 300 298 298 295 294 293 291 289 286 279 269 261 256 245 238 235 232 233 234 235 229 220 209 203 196 195 193 189 183 185 181 183
88 84 88 96 94 101 110 120 114 124 127 134 141 162 173 191 203 209 205 238 252 262 276 279 285 302 322 316 318 315 302 293 300 315 329 331 331 332 331 329 330 331 327 323 319 316 312 311 308 307 303 302 299 298 292 290 286 288 292 293 291 287 282 271 262 256 250 242 235 232 230 231 226 226 214 203 192 197 192 186 184 183 183 183 179